COSMOS 2251 DEB, 34964

Orbit data source: Space-Track

COSMOS 2251 DEB, 34964 is space debris in LEO originally from a launch on Wed, 16 Jun 1993 UTC launched from the Plesetsk Missile And Space Complex (PKMTR). The debris from Iridium 33, an American commercial communications satellite, has been tracked extensively since its accidental collision with the defunct Russian satellite Cosmos 2251 in 2009. This event, occurring at high speed in low Earth orbit (LEO), generated thousands of pieces of space debris, significantly increasing the risk of further collisions. The Iridium 33 debris cloud has impacted space traffic management and orbital debris mitigation strategies, making it a subject of ongoing study in space situational awareness.

Loading next visibility...
Identifier
34964, 1993-036AET
Orbit
LEO
Country
Flag of CISCIS
Related business
Manufacturer
Unknown
Mission
Spacecraft
Bus & Motor
Unknown
Mass
Unknown
Launch date (UTC)
1993-06-16 (33 years ago)
Launch vehicle
Unknown
Launch site
Plesetsk Missile And Space Complex (PKMTR)
Object type
Payload
Rocket body
Debris
Shape & HBR
Unknown shape, 0.1 m
Radar Cross Section
Small (<0.1 m²)

Expand to show TLE details & history
Last TLE update: 4 weeks ago

TLE from 4 weeks ago
0 COSMOS 2251 DEB
1 34964U 93036AET 26094.85460783  .00002852  00000-0  15762-2 0  9999
2 34964  73.9716 150.8853 0211504 344.2145  15.2459 14.01143709860625
Epoch: 2026-04-04T20:30Z
TLE epoch observation values (Epoch: 2026-04-04T20:30:38.116Z)
Latitude
0.00004°
Longitude
10.05809°
Altitude
744.302 km
Speed
7.559 km/s
True Right ascension
10h 03m 32s
True Declination
0° 00' 00"
Sunlit
Object was in full shadow at epoch
Visualization orbit readout
Latitude
Unknown
Longitude
Unknown
Altitude
Unknown
Speed
Unknown
Apparent Right ascension
Unknown
Apparent Declination
Unknown
Sunlit
N/A
Visualization observer readout
Local Sidereal Time
23:32:29
Azimuth
Unknown
Elevation
Unknown
Doppler factor
Unknown
Orbital elements
Apogee altitude
1,041.175 km
Perigee altitude
733.833 km
Semi-major axis
7,265.641 km
Eccentricity
0.02115
Inclination
73.9716°
RAAN
150.8853°
Arg. of periapsis
344.2145°
True anomaly
15.89988°
Mean anomaly
15.2459°
Eccentric anomaly
15.5712°
Mean motion
3.50455 °/min
Orbital period
102.72 mins
BSTAR
0.0015762
Loading maneuver chart data...
Computing Atmospheric mass density...

Documentation

Showing up to 5 results
|